| time (UTC) | temp C | wind direction | speed KPH | gust KPH | rain 1hr cm | rain 24hr cm | rain mn cm | humidity % | barometer mb |
| 20260504194504 | 15 | 184 | 3.2 | 14.5 | 0.00 | 0.00 | 0.00 | 65 | 1011.5 |
| 20260504194233 | 16 | 217 | 4.8 | 14.5 | 0.00 | 0.00 | 0.00 | 65 | 1011.5 |
| 20260504193309 | 16 | 152 | 1.6 | 14.5 | 0.00 | 0.00 | 0.00 | 65 | 1011.6 |
| 20260504193004 | 16 | 153 | 3.2 | 12.9 | 0.00 | 0.00 | 0.00 | 64 | 1011.6 |
| 20260504192229 | 16 | 172 | 6.4 | 12.9 | 0.00 | 0.00 | 0.00 | 63 | 1011.7 |
| 20260504191512 | 16 | 215 | 4.8 | 16.1 | 0.00 | 0.00 | 0.00 | 64 | 1011.7 |
| 20260504191240 | 16 | 232 | 4.8 | 22.5 | 0.00 | 0.00 | 0.00 | 63 | 1011.8 |
| 20260504190247 | 16 | 192 | 4.8 | 20.9 | 0.00 | 0.00 | 0.00 | 63 | 1011.9 |
| 20260504190045 | 16 | 187 | 8.0 | 20.9 | 0.00 | 0.00 | 0.00 | 62 | 1011.8 |
| 20260504185228 | 16 | 222 | 3.2 | 12.9 | 0.00 | 0.00 | 0.00 | 62 | 1011.9 |
| 20260504184550 | 16 | 229 | 1.6 | 17.7 | 0.00 | 0.00 | 0.00 | 61 | 1012.0 |
| 20260504184239 | 16 | 216 | 3.2 | 17.7 | 0.00 | 0.00 | 0.00 | 61 | 1012.0 |
| 20260504183248 | 17 | 198 | 6.4 | 14.5 | 0.00 | 0.00 | 0.00 | 61 | 1012.1 |
| 20260504183050 | 16 | 177 | 1.6 | 11.3 | 0.00 | 0.00 | 0.00 | 60 | 1012.0 |
| 20260504182233 | 17 | 166 | 3.2 | 14.5 | 0.00 | 0.00 | 0.00 | 60 | 1012.1 |
| 20260504181535 | 17 | 216 | 1.6 | 11.3 | 0.00 | 0.00 | 0.00 | 60 | 1012.1 |
| 20260504181238 | 17 | 171 | 1.6 | 11.3 | 0.00 | 0.00 | 0.00 | 60 | 1012.2 |
| 20260504180226 | 17 | 222 | 1.6 | 19.3 | 0.00 | 0.00 | 0.00 | 60 | 1012.3 |
| 20260504180050 | 17 | 227 | 3.2 | 19.3 | 0.00 | 0.00 | 0.00 | 60 | 1012.3 |
| 20260504175237 | 16 | 202 | 0.0 | 8.0 | 0.00 | 0.00 | 0.00 | 64 | 1012.3 |
| 20260504174526 | 16 | 166 | 1.6 | 11.3 | 0.00 | 0.00 | 0.00 | 62 | 1012.5 |
| 20260504174230 | 17 | 155 | 1.6 | 11.3 | 0.00 | 0.00 | 0.00 | 63 | 1012.4 |
| 20260504173241 | 17 | 140 | 0.0 | 16.1 | 0.00 | 0.00 | 0.00 | 64 | 1012.5 |
| 20260504173038 | 16 | 185 | 0.0 | 16.1 | 0.00 | 0.00 | 0.00 | 64 | 1012.5 |
| 20260504172233 | 16 | 157 | 1.6 | 14.5 | 0.00 | 0.00 | 0.00 | 64 | 1012.6 |
| 20260504171519 | 16 | 221 | 0.0 | 12.9 | 0.00 | 0.00 | 0.00 | 63 | 1012.8 |
| 20260504171222 | 16 | 223 | 3.2 | 12.9 | 0.00 | 0.00 | 0.00 | 61 | 1012.8 |
| 20260504170234 | 17 | 219 | 3.2 | 16.1 | 0.00 | 0.00 | 0.00 | 60 | 1013.0 |
| 20260504160243 | 17 | 202 | 1.6 | 11.3 | 0.00 | 0.00 | 0.00 | 56 | 1013.4 |
| 20260504150246 | 16 | 212 | 1.6 | 14.5 | 0.00 | 0.00 | 0.00 | 54 | 1014.1 |
| 20260504141248 | 15 | 217 | 6.4 | 17.7 | 0.00 | 0.00 | 0.00 | 53 | 1014.2 |
| 20260504140240 | 15 | 237 | 4.8 | 17.7 | 0.00 | 0.00 | 0.00 | 55 | 1014.2 |
| 20260504130252 | 13 | 234 | 0.0 | 14.5 | 0.00 | 0.00 | 0.00 | 62 | 1014.8 |
| 20260504120232 | 12 | 233 | 1.6 | 11.3 | 0.00 | 0.00 | 0.00 | 62 | 1014.9 |
| 20260504110227 | 10 | 238 | 0.0 | 4.8 | 0.00 | 0.00 | 0.00 | 67 | 1014.9 |
| 20260504100231 | 10 | 239 | 0.0 | 4.8 | 0.00 | 0.00 | 0.00 | 61 | 1014.7 |
| 20260504081512 | 9 | 247 | 0.0 | 0.0 | 0.00 | 0.00 | 0.00 | 61 | 1014.0 |
| 20260504081234 | 10 | 247 | 0.0 | 0.0 | 0.00 | 0.00 | 0.00 | 61 | 1014.1 |
| 20260504080229 | 10 | 247 | 0.0 | 4.8 | 0.00 | 0.00 | 0.00 | 61 | 1014.0 |
| 20260504070226 | 10 | 247 | 0.0 | 1.6 | 0.00 | 0.00 | 0.00 | 60 | 1013.6 |
| 20260504040011 | 6 | 274 | 0.0 | 0.0 | 0.00 | 0.00 | 0.00 | 67 | 1013.1 |
| 20260504035306 | 6 | 274 | 0.0 | 0.0 | 0.00 | 0.00 | 0.00 | 68 | 1013.0 |
| 20260504034539 | 6 | 274 | 0.0 | 0.0 | 0.00 | 0.00 | 0.00 | 68 | 1013.0 |
| 20260504034239 | 6 | 274 | 0.0 | 0.0 | 0.00 | 0.00 | 0.00 | 68 | 1013.0 |
| 20260504033224 | 6 | 274 | 0.0 | 0.0 | 0.00 | 0.00 | 0.00 | 68 | 1012.9 |
| 20260504033007 | 6 | 274 | 0.0 | 0.0 | 0.00 | 0.00 | 0.00 | 68 | 1012.9 |
| 20260504032237 | 7 | 274 | 0.0 | 0.0 | 0.00 | 0.00 | 0.00 | 68 | 1012.9 |
| 20260504031513 | 6 | 274 | 0.0 | 0.0 | 0.00 | 0.00 | 0.00 | 68 | 1012.9 |
| 20260504031223 | 7 | 274 | 0.0 | 0.0 | 0.00 | 0.00 | 0.00 | 68 | 1012.9 |
| 20260504030233 | 7 | 274 | 0.0 | 0.0 | 0.00 | 0.00 | 0.00 | 67 | 1012.8 |
| 20260504030041 | 7 | 274 | 0.0 | 0.0 | 0.00 | 0.00 | 0.00 | 67 | 1012.9 |
| 20260504025223 | 7 | 274 | 0.0 | 0.0 | 0.00 | 0.00 | 0.00 | 67 | 1012.9 |
| 20260504024524 | 7 | 274 | 0.0 | 0.0 | 0.00 | 0.00 | 0.00 | 65 | 1012.9 |
| 20260504024233 | 7 | 274 | 0.0 | 0.0 | 0.00 | 0.00 | 0.00 | 64 | 1012.9 |
| 20260504023222 | 7 | 274 | 0.0 | 0.0 | 0.00 | 0.00 | 0.00 | 63 | 1013.0 |
| 20260504023037 | 7 | 274 | 0.0 | 0.0 | 0.00 | 0.00 | 0.00 | 62 | 1013.0 |
| 20260504022231 | 7 | 274 | 0.0 | 0.0 | 0.00 | 0.00 | 0.00 | 64 | 1012.9 |
| 20260504021534 | 7 | 274 | 0.0 | 0.0 | 0.00 | 0.00 | 0.00 | 63 | 1012.8 |
| 20260504021248 | 8 | 274 | 0.0 | 0.0 | 0.00 | 0.00 | 0.00 | 63 | 1012.9 |
| 20260504020234 | 8 | 274 | 0.0 | 0.0 | 0.00 | 0.00 | 0.00 | 62 | 1012.8 |
| 20260504020040 | 8 | 274 | 0.0 | 0.0 | 0.00 | 0.00 | 0.00 | 61 | 1012.8 |
| 20260504015248 | 8 | 274 | 0.0 | 0.0 | 0.00 | 0.00 | 0.00 | 60 | 1012.8 |
| 20260504014540 | 8 | 274 | 0.0 | 0.0 | 0.00 | 0.00 | 0.00 | 61 | 1012.7 |
| 20260504014235 | 8 | 274 | 0.0 | 0.0 | 0.00 | 0.00 | 0.00 | 59 | 1012.7 |
| 20260504013232 | 8 | 274 | 0.0 | 0.0 | 0.00 | 0.00 | 0.00 | 61 | 1012.6 |
| 20260504013008 | 8 | 274 | 0.0 | 0.0 | 0.00 | 0.00 | 0.00 | 60 | 1012.5 |
| 20260504012248 | 9 | 274 | 0.0 | 0.0 | 0.00 | 0.00 | 0.00 | 58 | 1012.5 |
| 20260504011549 | 9 | 274 | 0.0 | 0.0 | 0.00 | 0.00 | 0.00 | 58 | 1012.4 |
| 20260504011241 | 10 | 274 | 0.0 | 0.0 | 0.00 | 0.00 | 0.00 | 56 | 1012.4 |
| 20260504010227 | 10 | 274 | 0.0 | 0.0 | 0.00 | 0.00 | 0.00 | 53 | 1012.2 |
| 20260504010020 | 10 | 274 | 0.0 | 0.0 | 0.00 | 0.00 | 0.00 | 54 | 1012.3 |
| 20260504005222 | 10 | 274 | 0.0 | 0.0 | 0.00 | 0.00 | 0.00 | 50 | 1012.1 |
| 20260504004523 | 11 | 274 | 0.0 | 0.0 | 0.00 | 0.00 | 0.00 | 49 | 1012.0 |
| 20260504004237 | 11 | 274 | 0.0 | 0.0 | 0.00 | 0.00 | 0.00 | 49 | 1012.0 |
| 20260504003232 | 12 | 274 | 0.0 | 0.0 | 0.00 | 0.00 | 0.00 | 46 | 1011.9 |
| 20260504003053 | 11 | 274 | 0.0 | 0.0 | 0.00 | 0.00 | 0.00 | 45 | 1011.9 |
| 20260504002227 | 12 | 274 | 0.0 | 0.0 | 0.00 | 0.00 | 0.00 | 40 | 1011.7 |
| 20260504001554 | 12 | 274 | 0.0 | 0.0 | 0.00 | 0.00 | 0.00 | 39 | 1011.6 |
| 20260504001243 | 13 | 274 | 0.0 | 0.0 | 0.00 | 0.00 | 0.00 | 37 | 1011.6 |
| 20260504000301 | 13 | 274 | 0.0 | 0.0 | 0.00 | 0.00 | 0.00 | 34 | 1011.5 |
| 20260504000040 | 13 | 274 | 0.0 | 0.0 | 0.00 | 0.00 | 0.00 | 34 | 1011.5 |
| 20260503235225 | 13 | 274 | 0.0 | 3.2 | 0.00 | 0.00 | 0.00 | 33 | 1011.3 |
| 20260503234559 | 13 | 283 | 0.0 | 0.0 | 0.00 | 0.00 | 0.00 | 33 | 1011.3 |
| 20260503234240 | 13 | 283 | 0.0 | 0.0 | 0.00 | 0.00 | 0.00 | 33 | 1011.2 |
| 20260503233256 | 14 | 283 | 0.0 | 4.8 | 0.00 | 0.00 | 0.00 | 32 | 1011.1 |
| 20260503233051 | 13 | 283 | 0.0 | 17.7 | 0.00 | 0.00 | 0.00 | 31 | 1011.1 |
| 20260503232230 | 14 | 273 | 1.6 | 19.3 | 0.00 | 0.00 | 0.00 | 31 | 1010.9 |
| 20260503231555 | 14 | 311 | 0.0 | 14.5 | 0.00 | 0.00 | 0.00 | 30 | 1010.9 |
| 20260503231225 | 14 | 331 | 0.0 | 14.5 | 0.00 | 0.00 | 0.00 | 30 | 1010.9 |
| 20260503230221 | 14 | 272 | 1.6 | 14.5 | 0.00 | 0.00 | 0.00 | 30 | 1010.9 |
| 20260503230024 | 14 | 211 | 0.0 | 17.7 | 0.00 | 0.00 | 0.00 | 31 | 1010.9 |
| 20260503224230 | 15 | 294 | 0.0 | 17.7 | 0.00 | 0.00 | 0.00 | 32 | 1010.8 |
| 20260503223307 | 15 | 317 | 6.4 | 25.7 | 0.00 | 0.00 | 0.00 | 29 | 1010.7 |
| 20260503223046 | 14 | 336 | 8.0 | 25.7 | 0.00 | 0.00 | 0.00 | 29 | 1010.9 |
| 20260503222229 | 15 | 235 | 6.4 | 24.1 | 0.00 | 0.00 | 0.00 | 29 | 1010.7 |
| 20260503221558 | 15 | 298 | 4.8 | 24.1 | 0.00 | 0.00 | 0.00 | 30 | 1010.6 |
| 20260503221240 | 15 | 292 | 0.0 | 20.9 | 0.00 | 0.00 | 0.00 | 31 | 1010.6 |
| 20260503220225 | 15 | 266 | 8.0 | 19.3 | 0.00 | 0.00 | 0.00 | 30 | 1010.6 |
| 20260503220026 | 14 | 290 | 0.0 | 19.3 | 0.00 | 0.00 | 0.00 | 31 | 1010.6 |
| 20260503215258 | 15 | 313 | 3.2 | 19.3 | 0.00 | 0.00 | 0.00 | 31 | 1010.6 |
| 20260503214515 | 14 | 227 | 4.8 | 20.9 | 0.00 | 0.00 | 0.00 | 31 | 1010.5 |
| 20260503214248 | 15 | 236 | 8.0 | 20.9 | 0.00 | 0.00 | 0.00 | 31 | 1010.6 |
| 20260503213233 | 15 | 277 | 4.8 | 16.1 | 0.00 | 0.00 | 0.00 | 32 | 1010.5 |
| 20260503213041 | 14 | 238 | 4.8 | 16.1 | 0.00 | 0.00 | 0.00 | 31 | 1010.5 |
| 20260503212226 | 15 | 348 | 1.6 | 25.7 | 0.00 | 0.00 | 0.00 | 31 | 1010.4 |
| 20260503211538 | 15 | 238 | 8.0 | 19.3 | 0.00 | 0.00 | 0.00 | 31 | 1010.4 |
| 20260503211236 | 15 | 326 | 3.2 | 30.6 | 0.00 | 0.00 | 0.00 | 32 | 1010.4 |
| 20260503210227 | 15 | 263 | 1.6 | 33.8 | 0.00 | 0.00 | 0.00 | 32 | 1010.2 |
| 20260503210006 | 14 | 294 | 9.7 | 33.8 | 0.00 | 0.00 | 0.00 | 31 | 1010.3 |
| 20260503205236 | 14 | 237 | 8.0 | 27.4 | 0.00 | 0.00 | 0.00 | 32 | 1010.2 |
| 20260503204508 | 14 | 317 | 4.8 | 22.5 | 0.00 | 0.00 | 0.00 | 33 | 1010.2 |
| 20260503204229 | 14 | 269 | 8.0 | 22.5 | 0.00 | 0.00 | 0.00 | 34 | 1010.3 |
| 20260503203241 | 14 | 307 | 1.6 | 32.2 | 0.00 | 0.00 | 0.00 | 35 | 1010.3 |
| 20260503203027 | 13 | 293 | 3.2 | 32.2 | 0.00 | 0.00 | 0.00 | 35 | 1010.3 |
| 20260503202226 | 14 | 269 | 9.7 | 25.7 | 0.00 | 0.00 | 0.00 | 34 | 1010.3 |
| 20260503201532 | 13 | 306 | 4.8 | 25.7 | 0.00 | 0.00 | 0.00 | 35 | 1010.5 |
| 20260503201236 | 14 | 292 | 12.9 | 25.7 | 0.00 | 0.00 | 0.00 | 34 | 1010.6 |
| 20260503200229 | 14 | 5 | 8.0 | 25.7 | 0.00 | 0.00 | 0.00 | 34 | 1010.6 |
| 20260503200058 | 13 | 256 | 6.4 | 25.7 | 0.00 | 0.00 | 0.00 | 35 | 1010.6 |
| 20260503195224 | 13 | 234 | 6.4 | 24.1 | 0.00 | 0.00 | 0.00 | 37 | 1010.6 |